Starlink 32108

operational
NORAD ID: 59682 Int'l Des: 2024-086 Owner: SPXS Country: US Constellation: starlink
LEOCIRCULAR

关于 Starlink 32108

正在加载描述...

实时位置

正在加载3D地球...

即将过境

高度历史

Altitude vs Time

uPlot chart will show altitude changes over time

两行轨道根数

1 59682U 24086A 25351.52247477 -.00000413 00000-0 -54747-5 0 9996
2 59682 42.9976 167.5381 0000937 272.8832 87.1912 15.27592482 91497
Epoch: Dec 17, 2025 • Age: 22 hours

当前状态

高度 486.7 km
速度 7.63 km/s
星下点 42.86°N, 9.22°E
发射日期 May 8, 2024
运行时间 1.6 years
类型 internet

技术详情

分类 Payload
质量 730.00 kg
干质量 700.00 kg
总质量 730.00 kg
长度 0.30 m
直径 4.10 m
跨度 29.00 m
形状 Box + pan
制造商 SPXS
平台类型 Starlink V2M
阶段状态 In Orbit
所有者/国家 SPXS/US

大型星座

Loading constellations...